User: anonymous
Location: Granada
(37.1830°N, 3.6000°W)
Time: 00:08:48
(UTC+02:00)
Language:

Iridium 70 - Orbit

View from above orbital plane
View from above orbital plane
View from above satellite
View from above satellite

Ground track
Ground track

The orbit data is extracted from the following two-line orbital elements,

1 25342U 98032A   14113.26275553  .00000495  00000-0  16981-3 0  7728
2 25342 086.3978 345.2747 0002147 107.0241 030.7580 14.34215436834135
Epoch (UTC): 23 April 2014 06:18:22
Eccentricity: 0.0002147
inclination: 86.3978°
perigee height: 776 km
apogee height: 779 km
right ascension of ascending node: 345.2747°
argument of perigee: 107.0241°
revolutions per day: 14.34215436
mean anomaly at epoch: 30.7580°
orbit number at epoch: 83413

The dashed part of the orbit path shows where the satellite is in the earth's shadow,  

DLR